星链-1643 (STARLINK-1643 )

导读 | 豆包AI

STARLINK-1643是美国SpaceX公司“星链”低轨互联网星座的一员,于2020年8月18日发射入轨。作为星链组网卫星,它运行在近地轨道,配备相控阵天线与霍尔推进系统,具备自主避碰能力,为全球偏远地区提供高速低时延宽带互联网服务,是星链全球覆盖网络的重要组成部分,设计寿命约5年,退役后会再入大气层销毁。

Basic Information
目录编号:
46136
目录名称:
STARLINK-1643
国际标识:
2020-057V
轨道中心:
EARTH
卫星名称:
星链-1643
卫星全名:
星链-1643 (STARLINK-1643 )
卫星状态:
已陨落 最后检测时间 2025-12-02
发射日期:
2020-08-18 UTC
国别 :
美国 (US)
星等 :
--
Orbit Information
数据来源 国际轨道数据
星历时间: 2025-12-02T13:16:51+0800
轨道信息已过期149天
半长轴: 6535.628km
偏心率: 0.000222
轨道倾角: 53.018°
近地点辐角 214.878°
升交点赤经 324.951°
平近点角 145.212°
近地点: 156.042km
远地点: 158.944km
周期: 87.638分钟
每日圈数: 16.431295
Detailed Information
固有亮度:
5
最大亮度:
2.5
卫星平台:
Starlink V1.0
覆盖范围:
全球
运营商:
太空探索技术公司
运营商所在国:
美国
制造商(研发单位):
太空探索技术公司
制造商所在国:
美国
使用方式:
暂无
Satellite Introduction
星链(Starlink)计划是由太空探索技术公司(SpaceX)提出的一个巨型低轨卫星互联网星座项目,计划在2019年至2024年间在太空搭建由约1.2万颗卫星组成的“星链”网络,其中1584颗将部署在地球上空550千米处的近地轨道,并从2020年开始工作。该卫星仍在工作。